ZS5AM Weather Reports


time (UTC)temp
C
wind
direction
speed
KPH
gust
KPH
rain 1hr
cm
rain 24hr
cm
rain mn
cm
humidity
%
barometer
mb
20211017151611 12 180 0.0 0.0 0.00 1.24 0.99 95 1019.9
20211017150111 12 204 0.0 4.8 0.00 1.24 0.99 95 1019.8
20211017144551 12 207 0.0 0.0 0.00 1.24 0.99 95 1019.6
20211017143053 12 207 0.0 0.0 0.00 1.24 0.99 94 1019.4
20211017141600 12 207 0.0 1.6 0.00 1.24 0.99 94 1019.2
20211017140037 12 204 0.0 0.0 0.00 1.24 0.99 94 1019.0
20211017134612 12 204 0.0 0.0 0.00 1.24 0.99 94 1018.9
20211017133039 13 204 0.0 0.0 0.00 1.24 0.99 93 1018.7
20211017131537 13 204 0.0 0.0 0.00 1.24 0.99 93 1018.5
20211017130031 13 210 0.0 1.6 0.00 1.24 0.99 94 1018.2
20211017124546 13 355 0.0 0.0 0.03 1.24 0.99 94 1018.3
20211017123053 13 355 0.0 4.8 0.03 1.24 0.99 94 1018.4
20211017121620 13 223 0.0 0.0 0.05 1.24 0.99 94 1018.4
20211017120031 12 223 0.0 0.0 0.05 1.24 0.99 95 1018.6
20211017114537 12 223 0.0 0.0 0.03 1.22 0.99 94 1018.7
20211017113113 13 217 0.0 0.0 0.03 1.22 0.99 94 1018.8
20211017111552 12 217 0.0 0.0 0.00 1.19 0.97 93 1018.9
20211017110054 13 217 0.0 0.0 0.00 1.19 0.97 93 1018.8
20211017104539 13 217 0.0 0.0 0.00 1.19 0.97 93 1018.8
20211017103037 13 217 0.0 0.0 0.00 1.19 0.97 93 1019.0
20211017101525 13 167 0.0 0.0 0.00 1.19 0.97 93 1019.1
20211017100143 13 167 0.0 0.0 0.00 1.19 0.97 94 1019.2
20211017094532 13 167 0.0 4.8 0.00 1.19 0.97 94 1019.2
20211017091529 12 167 0.0 0.0 0.00 1.19 0.97 95 1019.5
20211017090023 12 165 0.0 0.0 0.00 1.19 0.97 95 1019.4
20211017084529 12 244 0.0 0.0 0.00 1.19 0.97 95 1019.5
20211017083031 12 48 0.0 0.0 0.00 1.19 0.97 96 1019.6
20211017081524 12 45 0.0 0.0 0.00 1.19 0.97 96 1019.7
20211017080055 12 63 0.0 0.0 0.00 1.19 0.97 96 1019.7
20211017074515 12 184 0.0 0.0 0.00 1.19 0.97 95 1019.7
20211017073018 12 302 0.0 0.0 0.00 1.19 0.97 96 1019.6
20211017071523 12 200 0.0 0.0 0.00 1.19 0.97 96 1019.6
20211017070037 12 202 0.0 0.0 0.00 1.19 0.97 96 1019.7
20211017064508 12 206 0.0 0.0 0.00 1.19 0.97 96 1019.4
20211017063008 12 192 0.0 0.0 0.03 1.19 0.97 96 1019.3
20211017061540 12 217 0.0 0.0 0.03 1.19 0.97 96 1019.2
20211017060004 11 267 0.0 0.0 0.03 1.19 0.97 96 1019.1
20211017054506 11 182 0.0 0.0 0.03 1.19 0.97 96 1019.0
20211017053145 11 96 0.0 3.2 0.00 1.17 0.94 96 1019.0
20211017051652 11 247 0.0 3.2 0.03 1.17 0.94 96 1018.6
20211017050124 11 254 0.0 0.0 0.03 1.17 0.94 96 1018.6
20211017044633 11 10 0.0 3.2 0.05 1.17 0.94 96 1018.7
20211017043136 11 240 0.0 0.0 0.05 1.17 0.94 96 1018.6
20211017041643 11 69 0.0 4.8 0.05 1.17 0.91 96 1018.3
20211017040158 11 171 0.0 0.0 0.08 1.17 0.91 96 1018.0
20211017034617 11 184 0.0 3.2 0.05 1.14 0.89 96 1017.7
20211017033125 11 163 0.0 3.2 0.15 1.14 0.89 96 1017.3
20211017031613 11 163 0.0 0.0 0.23 1.12 0.89 96 1017.1
20211017030101 12 163 0.0 1.6 0.36 1.09 0.84 96 1017.1
20211017024552 12 163 0.0 0.0 0.46 1.07 0.81 96 1017.0
20211017023103 12 180 0.0 1.6 0.43 0.99 0.76 96 1016.7
20211017021601 12 212 0.0 1.6 0.33 0.89 0.64 96 1016.8
20211017020041 13 182 0.0 4.8 0.15 0.71 0.48 96 1016.0
20211017014657 13 198 0.0 3.2 0.05 0.61 0.36 96 1016.4
20211017013050 13 175 0.0 0.0 0.05 0.56 0.33 96 1016.1
20211017011527 13 175 0.0 0.0 0.05 0.56 0.33 96 1016.1
20211017010034 13 175 1.6 12.9 0.05 0.56 0.33 96 1016.0
20211017004542 13 220 0.0 0.0 0.03 0.53 0.30 96 1015.8
20211017003036 13 184 0.0 0.0 0.03 0.51 0.28 96 1015.7
20211017001548 13 184 0.0 0.0 0.05 0.51 0.28 96 1015.8
20211017000025 13 217 0.0 0.0 0.08 0.51 0.28 96 1015.0
20211016234529 13 16 0.0 3.2 0.13 0.51 0.28 96 1015.4
20211016233021 13 215 0.0 0.0 0.15 0.51 0.25 96 1015.6
20211016231519 13 319 0.0 0.0 0.20 0.48 0.23 96 1015.6
20211016230021 13 343 0.0 0.0 0.20 0.43 0.20 96 1015.3
20211016224523 13 343 0.0 0.0 0.20 0.41 0.15 96 1016.4
20211016223015 13 342 0.0 0.0 0.18 0.36 0.13 96 1015.8
20211016221513 13 342 0.0 0.0 0.13 0.28 0.05 96 1016.0
20211016220010 13 342 0.0 0.0 0.08 0.23 0.00 96 1015.7
20211016214509 13 342 0.0 0.0 0.05 0.20 0.20 96 1015.5
20211016213009 13 342 0.0 0.0 0.03 0.18 0.18 96 1016.0
20211016211508 13 342 0.0 0.0 0.03 0.15 0.15 96 1015.6
20211016210005 13 342 0.0 0.0 0.05 0.15 0.15 96 1015.6
20211016204523 13 342 0.0 0.0 0.08 0.20 0.15 96 1015.7
20211016203006 13 342 0.0 0.0 0.10 0.20 0.15 95 1015.8
20211016201505 13 342 0.0 0.0 0.10 0.18 0.15 95 1015.3
20211016200002 13 343 0.0 0.0 0.08 0.15 0.13 95 1015.9
20211016194632 13 344 0.0 0.0 0.05 0.13 0.08 95 1015.4
20211016193059 13 273 0.0 0.0 0.03 0.10 0.05 95 1015.2
20211016191626 13 283 0.0 3.2 0.00 0.08 0.05 94 1014.4
20211016190126 13 47 0.0 0.0 0.03 0.08 0.05 94 1014.7
20211016184612 13 292 0.0 0.0 0.05 0.08 0.05 94 1014.4
20211016183140 13 292 0.0 0.0 0.05 0.08 0.05 93 1014.5
20211016181700 13 292 0.0 1.6 0.05 0.08 0.05 93 1014.5
20211016174624 14 169 0.0 0.0 0.00 0.05 0.00 91 1013.9
20211016173116 14 170 0.0 0.0 0.00 0.05 0.00 91 1014.1
20211016171626 14 332 0.0 0.0 0.00 0.05 0.00 91 1013.5
20211016170058 13 159 0.0 0.0 0.00 0.05 0.00 92 1012.7
20211016164615 14 159 0.0 0.0 0.00 0.05 0.00 92 1012.5
20211016163109 14 158 0.0 0.0 0.00 0.05 0.00 92 1012.6
20211016161610 14 158 0.0 0.0 0.00 0.05 0.00 92 1012.3
20211016160049 14 158 0.0 0.0 0.00 0.05 0.00 91 1012.2
20211016154717 14 88 0.0 0.0 0.00 0.05 0.00 90 1012.3
20211016153106 14 225 0.0 9.7 0.00 0.05 0.00 90 1012.4